Theta_e
307 307 308 307 308 308 308 308 307 307 307 308 308 309 308 308 310 312 312 318 315 313 312 310 310 310 309 310 311 306 306 307 309 309 306 307 307 308 309 307 307 309 310 310 310 311 311
306 306 306 306 306 306 305 305 306 306 306 308 307 308 307 307 308 309 310 316 314 312 312 310 309 309 309 310 308 307 306 306 306 307 307 307 308 306 307 307 309 309 311 311 311 311 311
307 306 305 305 305 305 306 305 305 305 304 306 306 305 306 305 307 308 309 312 314 311 310 309 309 309 309 309 308 307 306 305 306 307 307 306 307 307 307 308 307 309 311 312 313 312 311
306 306 306 305 304 304 304 304 304 304 304 304 305 304 304 304 305 308 308 313 313 310 308 309 308 309 310 308 308 308 307 307 307 307 307 307 307 308 308 307 308 310 311 314 312 312 311
305 306 306 305 305 305 305 304 304 303 303 303 303 303 302 304 305 306 310 313 310 308 306 307 308 309 310 307 307 307 308 307 307 307 307 307 308 309 310 311 312 312 315 315 312 311 310
306 306 306 305 305 304 305 304 303 303 302 302 302 302 302 302 304 310 312 309 306 308 308 308 308 309 308 309 308 308 307 307 307 306 307 308 309 311 312 312 315 318 316 315 314 314 315
306 305 305 305 304 304 303 303 303 301 302 302 302 301 300 301 303 306 306 307 308 309 309 311 310 309 309 309 307 307 307 307 308 308 309 310 314 315 314 313 313 314 316 317 314 315 318
305 305 305 305 305 304 303 302 302 302 302 302 302 302 301 301 302 303 306 306 307 305 310 309 309 309 308 308 309 308 307 310 310 312 311 313 315 312 314 314 315 316 316 317 319 318 319
306 306 305 305 304 303 302 302 302 302 302 302 302 302 301 301 302 305 306 306 305 305 307 309 309 309 308 308 310 310 308 309 311 310 311 314 314 314 313 315 316 316 316 320 322 320 320
307 306 305 304 303 302 301 302 302 301 301 302 302 302 301 301 302 302 304 306 305 306 312 311 309 308 309 310 311 310 309 310 310 311 312 314 313 314 315 317 318 319 316 319 321 322 324
307 307 305 304 302 301 300 300 301 301 301 301 302 301 301 301 301 302 304 305 306 305 318 311 309 309 310 312 313 311 309 311 313 313 314 317 316 314 316 318 317 320 316 321 321 322 322
309 308 305 301 300 300 300 301 301 301 301 301 301 301 301 300 301 301 302 304 303 312 317 312 311 312 312 312 312 312 312 310 312 314 315 316 314 314 315 315 316 317 319 319 321 321 328
309 310 303 299 300 299 300 301 301 301 301 301 301 301 299 299 300 302 303 304 311 316 310 312 312 312 313 314 314 315 316 315 317 320 318 315 314 313 315 317 319 320 322 326 329 328 326
310 304 300 298 299 300 300 300 301 301 301 302 302 302 302 301 301 302 303 305 315 312 311 310 311 312 313 313 313 314 314 316 312 312 318 324 323 317 316 319 322 321 319 325 329 328 323
303 301 297 299 300 300 300 300 301 301 301 302 301 300 300 301 301 302 303 310 317 311 310 312 312 313 314 313 313 314 316 319 317 313 321 324 321 316 317 317 318 319 320 316 321 320 321
301 299 299 299 300 300 300 301 301 301 301 300 301 300 298 299 300 303 305 314 310 310 310 310 312 312 313 313 315 315 317 315 316 313 313 317 322 317 317 318 318 318 315 321 321 327 323
302 301 299 299 300 300 301 301 301 302 301 301 301 301 301 300 302 304 309 312 311 310 310 311 310 311 312 312 314 315 316 315 315 314 313 315 318 319 318 319 318 319 318 316 316 317 322
302 299 298 299 299 300 301 301 301 302 301 301 301 304 302 303 306 306 313 310 309 310 310 311 311 310 311 312 313 315 316 316 314 313 315 314 318 321 319 316 314 316 315 315 319 317 318
301 298 298 299 300 301 301 301 301 302 302 302 302 300 303 303 310 311 309 309 309 310 312 312 313 311 311 311 313 315 316 314 314 314 314 313 317 322 319 316 316 317 316 315 314 318 316
299 298 299 299 301 301 301 301 301 302 302 301 304 307 304 305 308 309 309 308 311 309 311 312 312 310 311 312 312 315 316 315 314 314 312 313 315 317 320 317 316 317 316 314 317 325 316
298 298 299 300 300 301 301 301 301 301 300 302 304 304 304 311 308 309 309 308 310 312 312 312 313 311 311 312 313 316 315 315 314 313 313 314 316 315 313 313 315 315 315 315 316 314 317
297 298 299 300 300 301 301 301 300 299 301 301 304 305 305 305 305 307 308 309 311 311 312 313 314 312 312 313 313 313 314 313 314 314 314 314 317 314 315 313 313 314 315 315 315 314 315
297 298 300 300 300 301 301 301 300 300 301 302 302 302 306 305 306 308 309 309 310 310 311 311 312 312 313 312 313 312 312 313 313 314 314 315 315 318 318 313 313 315 312 314 315 315 315
298 299 300 300 300 301 301 302 301 301 301 302 302 303 307 306 306 307 306 307 309 311 312 312 312 313 310 311 312 312 312 312 312 312 312 314 314 316 319 315 322 313 309 309 312 313 314
298 299 300 300 300 301 301 302 302 302 303 303 301 304 306 307 306 307 306 307 308 310 312 311 310 310 309 312 313 313 313 312 312 312 312 312 314 316 320 315 312 311 310 310 311 311 310
298 299 300 300 300 300 301 302 303 302 303 304 304 302 304 306 305 300 306 307 309 311 312 311 308 308 310 312 312 314 314 313 313 313 311 311 312 314 314 316 312 311 308 307 308 312 309
298 299 300 300 300 301 303 304 304 303 303 304 301 301 300 305 301 300 306 308 308 309 311 311 310 311 312 314 313 312 313 311 313 313 313 313 313 315 314 315 313 309 308 307 311 313 310
297 299 300 300 300 303 304 303 303 303 302 301 299 298 301 303 300 298 299 306 308 310 312 311 312 313 314 315 314 312 311 311 311 311 312 313 313 313 312 314 314 308 308 310 309 308 310
298 299 299 299 300 304 304 302 303 301 300 300 300 297 298 302 300 297 297 296 297 298 306 309 310 312 313 315 312 311 310 310 310 311 309 313 312 312 312 312 308 308 309 306 307 309 309
Wind_Speed
19 21 20 19 21 21 21 22 22 23 24 25 25 25 26 29 27 26 23 19 16 12 9 6 6 7 5 7 11 9 8 4 7 7 7 7 8 10 14 11 14 16 21 24 23 21 22
18 19 20 21 21 22 23 24 25 25 26 26 25 26 27 29 27 28 27 19 16 12 9 6 7 7 8 9 3 6 6 6 8 8 9 8 6 8 10 11 17 14 17 20 22 24 21
18 19 20 21 22 23 22 23 24 26 26 26 27 27 28 29 30 28 31 28 18 11 7 7 7 8 9 13 3 6 8 7 7 9 9 10 10 8 6 13 13 13 17 17 22 21 22
21 21 22 21 22 23 23 23 23 24 25 27 26 29 30 31 33 33 34 18 14 9 6 7 8 10 7 4 8 10 9 10 8 9 11 9 8 12 16 12 14 16 15 12 12 17 18
22 23 23 24 23 24 23 23 23 23 25 27 27 27 30 32 36 44 17 18 12 9 6 8 7 11 7 4 8 8 8 9 6 9 11 9 5 9 9 11 7 9 9 14 12 15 10
22 24 24 23 24 23 24 23 23 24 23 25 26 28 30 31 35 24 11 15 11 7 8 7 3 5 7 6 8 5 4 4 4 5 6 11 6 9 5 5 8 6 14 12 13 6 18
23 24 25 23 24 24 23 24 24 25 26 26 25 27 30 28 28 27 6 9 5 3 9 8 9 4 8 7 6 6 6 8 5 5 8 13 8 10 15 15 18 18 16 16 15 9 16
23 24 25 25 25 23 24 24 24 25 24 26 25 24 29 29 25 24 10 3 6 3 6 20 12 14 3 5 4 8 9 7 5 8 12 6 12 14 6 8 12 17 18 18 5 8 11
26 25 24 24 24 24 27 26 24 24 23 26 24 21 22 30 31 9 9 7 5 4 4 6 16 13 7 9 5 10 12 4 7 8 11 13 9 5 5 8 10 13 15 11 5 10 7
30 27 24 23 23 25 27 26 24 24 24 24 22 20 20 23 18 16 11 7 4 3 3 8 8 6 8 6 5 8 12 4 5 8 12 9 12 6 7 10 8 10 11 6 6 8 2
36 30 25 20 24 26 26 27 24 23 25 25 20 19 17 15 18 10 9 10 7 2 4 9 7 9 9 7 8 8 5 5 9 7 4 2 5 7 11 6 7 5 4 5 10 10 4
49 35 16 17 26 25 26 25 25 25 26 24 20 16 15 15 12 16 14 2 4 2 5 5 6 8 9 9 6 5 4 1 5 3 6 12 4 5 5 10 10 11 7 10 13 9 1
55 39 14 24 24 24 25 25 26 27 26 24 22 20 17 16 10 5 4 3 3 5 6 5 7 9 12 8 8 8 7 5 3 2 3 1 2 4 7 6 7 8 8 3 5 1 3
24 16 20 28 21 25 24 27 28 28 28 25 24 23 24 23 12 13 4 0 6 5 5 3 9 12 6 10 5 7 2 1 3 1 2 3 2 5 6 2 1 3 4 4 4 2 4
19 27 26 19 23 23 27 29 29 29 28 29 30 21 13 20 17 10 2 3 6 5 4 6 10 9 5 5 3 4 6 3 5 9 3 0 3 5 3 4 5 3 2 5 5 5 5
25 22 21 22 24 24 27 29 30 29 30 30 20 9 3 6 18 12 1 4 4 6 3 8 2 4 5 7 5 4 3 3 2 1 3 1 3 3 5 5 5 3 6 2 1 2 5
19 21 22 22 24 26 29 29 29 29 30 24 9 3 16 23 18 1 2 3 5 7 6 4 3 4 2 5 1 2 3 3 5 3 2 4 2 1 4 5 7 3 6 3 3 3 2
19 23 22 22 24 27 28 28 28 29 29 23 6 4 12 12 3 1 1 4 4 6 5 3 3 5 2 2 3 2 6 6 8 6 3 4 4 2 2 1 2 2 9 9 4 4 4
19 23 21 22 25 26 26 27 27 27 24 13 3 3 6 6 2 2 4 4 5 4 5 6 3 5 1 2 1 4 4 4 7 6 7 6 3 1 2 2 0 6 11 10 2 3 4
20 20 21 22 25 25 25 26 25 25 22 7 2 2 3 2 2 6 3 4 3 4 5 6 3 3 3 4 3 5 5 4 5 6 5 6 5 6 6 5 4 5 11 13 6 6 12
19 19 20 22 23 24 25 25 23 21 19 3 3 2 2 2 4 2 4 3 2 4 5 4 2 2 2 2 4 4 3 5 4 4 4 6 4 4 8 6 5 4 7 11 12 11 10
18 18 21 22 22 23 24 24 19 18 13 8 2 2 2 2 2 3 3 3 2 3 4 2 2 5 2 4 5 4 2 3 4 3 4 3 2 3 3 5 5 5 7 6 7 8 10
17 18 20 21 22 23 24 20 15 13 9 4 1 2 3 4 2 3 2 3 0 3 3 5 7 3 8 7 9 7 7 8 6 4 3 3 2 3 3 6 4 3 7 5 4 4 3
15 17 19 21 22 22 22 18 15 9 3 1 0 2 2 3 1 3 4 4 4 7 4 6 8 2 2 3 7 8 9 9 9 7 5 2 3 1 1 3 2 3 4 5 4 2 4
14 17 19 20 23 23 23 18 12 8 4 5 3 2 1 2 2 3 1 3 2 3 5 5 6 4 5 5 3 2 2 2 5 6 7 5 0 1 2 1 3 1 1 2 4 5 3
11 17 20 22 24 26 25 20 13 5 2 9 5 5 3 3 3 2 3 1 2 1 4 3 3 5 4 2 1 2 3 4 2 2 4 4 3 2 1 0 0 4 3 1 3 3 3
12 13 21 24 27 29 28 16 6 7 10 7 4 4 3 1 2 2 1 3 2 0 3 3 2 4 6 2 1 1 2 3 1 2 1 1 2 3 1 2 2 5 3 1 2 4 4
11 12 18 24 26 27 17 7 10 10 12 5 4 2 3 2 3 2 3 2 3 2 0 4 4 3 0 2 2 1 2 1 2 2 1 3 2 2 1 2 2 4 2 2 3 2 3
9 11 14 19 20 18 11 11 15 15 7 4 3 4 4 2 3 1 1 3 3 5 3 2 3 2 2 1 1 1 2 2 3 2 2 3 2 3 3 2 2 4 4 3 2 2 1
Wind_Direction
354 351 350 351 347 348 350 348 345 344 341 340 336 337 336 333 328 328 328 223 227 227 218 239 237 227 212 229 249 163 191 210 184 195 228 242 264 266 258 273 288 265 260 269 272 269 260
350 349 347 348 344 344 343 338 341 342 339 337 339 340 339 334 327 325 319 289 218 223 218 214 219 213 230 243 98 172 178 196 209 208 220 230 254 289 302 277 269 272 278 274 265 261 258
343 343 345 343 343 340 340 340 338 338 334 337 336 336 338 332 326 317 318 307 220 205 209 206 200 201 227 241 183 189 197 216 229 229 241 243 265 254 273 277 274 286 278 277 266 257 251
339 337 339 336 337 336 334 333 334 336 333 335 335 335 331 331 326 318 306 268 210 190 199 198 194 217 248 228 222 225 227 239 236 241 240 252 258 261 263 263 275 278 275 267 251 238 234
335 335 335 334 330 329 326 327 327 327 329 330 329 330 332 332 331 326 290 187 173 167 176 180 184 220 253 179 210 223 226 236 227 218 231 233 228 243 247 243 261 224 263 243 256 203 216
330 329 327 331 326 326 328 325 326 325 325 320 323 325 329 333 336 346 126 150 148 136 166 181 277 213 222 209 159 168 183 187 192 190 224 226 225 238 213 201 251 261 227 254 255 223 198
324 323 324 321 321 322 322 323 323 324 323 322 316 319 321 329 336 336 27 121 107 178 218 201 182 241 141 122 152 187 152 159 179 201 216 197 216 229 234 236 249 278 294 267 271 263 188
314 319 321 321 322 323 320 323 319 320 324 321 320 317 320 324 328 322 284 311 334 8 264 224 239 217 145 181 190 181 172 212 199 221 221 229 245 255 331 287 265 256 262 270 284 228 189
305 307 317 316 322 328 323 319 314 321 322 322 320 316 319 318 323 306 233 245 247 309 258 174 211 216 211 201 224 165 192 198 239 250 234 241 256 215 268 267 247 249 240 266 196 196 232
298 299 303 314 323 327 325 323 318 318 319 321 322 321 317 318 320 342 291 306 246 250 273 166 184 198 175 216 214 150 198 223 208 240 240 259 262 247 240 250 269 261 232 262 143 202 141
294 291 301 322 332 326 324 324 324 319 320 317 318 315 317 312 299 304 335 339 169 227 244 129 138 140 152 193 132 180 183 211 260 266 249 283 324 275 267 269 218 270 223 179 286 277 318
306 284 288 344 332 327 325 329 326 324 322 321 318 308 314 309 295 286 290 268 117 194 230 138 129 163 158 200 188 127 178 255 290 283 244 270 356 323 278 310 274 294 174 215 260 256 115
315 306 14 353 330 328 329 331 331 328 324 321 315 303 276 276 267 343 332 125 175 252 159 146 164 170 191 163 184 183 181 187 274 257 230 192 218 235 227 249 226 249 240 189 227 89 48
351 33 1 339 333 328 338 336 333 331 328 324 317 304 283 268 258 250 238 213 247 76 94 143 148 163 172 157 185 191 215 234 218 158 295 297 124 358 325 323 262 209 309 321 352 105 89
23 3 352 336 334 345 340 336 336 335 332 328 322 302 275 253 213 192 127 224 17 40 107 139 139 161 154 172 268 152 204 190 166 201 285 323 36 330 304 342 336 344 309 337 314 50 71
15 3 356 346 347 346 338 337 340 339 337 334 316 335 270 158 165 167 146 329 34 32 116 140 118 261 160 165 198 187 157 20 59 17 258 52 103 333 325 323 215 298 327 264 263 323 77
3 2 352 352 351 345 342 344 345 346 343 340 347 13 61 125 129 99 250 30 44 29 21 10 13 122 78 134 249 91 53 67 14 353 287 303 296 120 263 23 5 2 19 303 275 332 344
3 354 356 353 350 345 348 351 350 351 347 356 7 60 43 116 77 254 341 31 20 351 354 354 307 45 101 106 83 80 84 39 350 326 28 16 56 66 77 240 328 331 6 10 340 44 15
357 353 356 351 348 350 353 351 350 352 359 350 49 31 64 316 95 51 39 61 46 357 345 335 51 29 11 71 68 67 71 9 7 18 2 359 27 162 145 153 318 20 10 355 10 18 18
350 355 353 350 348 351 353 351 352 352 355 26 48 70 342 345 310 99 81 15 34 301 295 298 41 88 122 46 33 121 109 42 9 13 331 286 52 40 62 54 332 14 17 22 41 47 73
351 352 351 348 351 351 353 353 353 354 8 354 42 49 337 19 27 43 41 358 45 352 237 329 101 71 98 91 96 93 95 139 72 5 17 2 66 65 71 49 67 30 36 41 45 37 67
350 349 346 348 348 348 351 352 356 357 15 49 50 13 31 14 2 79 337 31 34 321 333 45 73 74 352 60 1 132 115 31 35 50 21 9 88 13 54 37 51 63 50 57 64 65 77
347 346 344 345 343 344 347 352 0 356 14 59 356 285 281 12 11 307 41 89 265 304 77 42 337 86 63 37 55 67 67 63 62 9 42 20 116 345 6 355 332 140 25 39 73 46 20
346 340 342 340 337 337 340 345 342 344 334 306 290 287 313 87 335 340 331 273 23 17 48 54 18 1 40 166 107 92 84 76 66 46 4 105 103 43 323 300 13 58 42 359 349 44 82
344 337 339 336 334 332 332 332 331 328 307 211 240 215 305 105 268 121 136 186 236 71 54 43 20 35 355 287 145 141 110 147 56 41 23 8 204 71 292 251 115 222 308 352 4 92 69
345 338 336 335 332 330 328 321 308 279 273 170 204 209 303 311 59 64 123 96 139 52 116 47 94 345 314 301 300 350 28 15 25 40 12 7 6 346 3 57 179 68 120 207 267 154 79
337 345 338 337 334 332 330 316 261 204 161 153 144 189 279 325 62 314 61 55 66 104 56 107 6 337 339 323 53 356 71 347 304 313 333 356 339 322 316 337 325 101 102 262 254 58 74
331 346 346 340 342 350 356 59 133 145 150 111 109 231 297 6 91 339 337 305 178 222 201 143 195 199 116 303 297 54 296 82 274 6 270 253 244 239 240 273 270 140 107 303 53 102 119
329 340 357 347 353 12 38 100 114 124 84 53 77 62 66 7 67 120 41 24 11 333 314 162 351 345 40 259 258 282 208 206 321 248 216 257 308 343 282 27 26 195 26 75 23 15 300